Weather History for Sweetwater, TX

Change the Weather History Date:

Thursday, March 14, 2013

  Actual Average Record
Temperature  
Mean Temperature 66 °F -  
Max Temperature 81 °F 72 °F 90 °F (1989)
Min Temperature 51 °F 40 °F 13 °F (1954)
Cooling Degree Days 1    
Growing Degree Days 16 (Base 50)    
Moisture  
Dew Point 34 °F    
Average Humidity 34    
Maximum Humidity 62    
Minimum Humidity 15    
Precipitation  
Precipitation 0.00 in - - ()
Sea Level Pressure  
Sea Level Pressure 30.24 in    
Wind  
Wind Speed 13 mph (South)    
Max Wind Speed 21 mph    
Max Gust Speed 26 mph    
Visibility 10 miles    
Events      
Averages and records for this station are not official NWS values.
T = Trace of Precipitation, MM = Missing Value Source: NWS Daily Summary

Daily Weather History Graph

Daily Weather History Graph

Search for Another Location

Airport:

Trip Planner

Search our weather history database for the weather conditions in past years. The results will help you decide how hot, cold, wet, or windy it might be!

Date:

Astronomy

Mar. 14, 2013 Rise Set
Actual Time 7:52 AM CDT 7:49 PM CDT
Civil Twilight 7:28 AM CDT 8:13 PM CDT
Nautical Twilight 7:00 AM CDT 8:42 PM CDT
Astronomical Twilight 6:31 AM CDT 9:11 PM CDT
Moon 9:19 AM CDT (3/14) 10:53 PM CDT (3/14)
Length of Visible Light 12h 45m
Length of Day
11h 56m
Waxing Crescent, 9% of the Moon is Illuminated
Mar 14
Waxing Crescent
Mar 19
First Quarter
Mar 27
Full
Apr 2
Last Quarter
Apr 10
New

Hourly Weather History & Observations

Time (CDT) Temp. Dew Point Humidity Pressure Visibility Wind Dir Wind Speed Gust Speed Precip Events Conditions
12:15 AM 55.8 °F 32.0 °F 41% 30.29 in 10.0 mi SSE 10.4 mph - N/A   Clear
12:35 AM 55.8 °F 32.0 °F 41% 30.29 in 10.0 mi SSE 9.2 mph - N/A   Clear
12:55 AM 54.0 °F 32.0 °F 43% 30.28 in 10.0 mi SSE 9.2 mph - N/A   Clear
1:15 AM 52.7 °F 32.0 °F 45% 30.28 in 10.0 mi South 9.2 mph - N/A   Clear
1:35 AM 53.4 °F 32.2 °F 44% 30.28 in 10.0 mi South 9.2 mph - N/A   Clear
1:55 AM 52.5 °F 32.0 °F 46% 30.28 in 10.0 mi South 8.1 mph - N/A   Clear
2:15 AM 52.5 °F 32.0 °F 46% 30.28 in 10.0 mi South 10.4 mph - N/A   Clear
2:35 AM 55.2 °F 30.2 °F 38% 30.28 in 10.0 mi South 11.5 mph - N/A   Clear
2:55 AM 55.0 °F 30.0 °F 38% 30.28 in 10.0 mi South 11.5 mph - N/A   Clear
3:15 AM 53.8 °F 29.7 °F 40% 30.27 in 10.0 mi South 10.4 mph - N/A   Clear
3:35 AM 54.5 °F 30.2 °F 39% 30.27 in 10.0 mi South 10.4 mph - N/A   Clear
3:55 AM 53.6 °F 30.7 °F 42% 30.27 in 10.0 mi South 11.5 mph - N/A   Clear
4:15 AM 53.4 °F 31.1 °F 43% 30.26 in 10.0 mi South 10.4 mph - N/A   Clear
4:35 AM 52.2 °F 32.0 °F 46% 30.26 in 10.0 mi South 10.4 mph - N/A   Clear
4:55 AM 51.8 °F 32.0 °F 47% 30.26 in 10.0 mi South 10.4 mph - N/A   Clear
5:15 AM 51.1 °F 32.2 °F 48% 30.26 in 10.0 mi South 9.2 mph - N/A   Clear
5:35 AM 51.4 °F 32.9 °F 49% 30.26 in 10.0 mi South 10.4 mph - N/A   Clear
5:55 AM 52.2 °F 33.3 °F 49% 30.26 in 10.0 mi South 11.5 mph - N/A   Clear
6:15 AM 52.0 °F 34.2 °F 51% 30.27 in 10.0 mi South 11.5 mph - N/A   Clear
6:35 AM 52.2 °F 35.2 °F 53% 30.27 in 10.0 mi South 12.7 mph - N/A   Clear
6:55 AM 52.2 °F 36.3 °F 55% 30.27 in 10.0 mi South 12.7 mph - N/A   Clear
7:15 AM 52.3 °F 37.4 °F 57% 30.28 in 10.0 mi South 12.7 mph - N/A   Clear
7:35 AM 52.3 °F 38.3 °F 59% 30.28 in 10.0 mi South 12.7 mph - N/A   Clear
7:55 AM 52.0 °F 39.0 °F 61% 30.28 in 10.0 mi South 11.5 mph - N/A   Clear
8:15 AM 52.3 °F 39.6 °F 62% 30.28 in 10.0 mi South 12.7 mph - N/A   Clear
8:35 AM 54.1 °F 40.5 °F 60% 30.28 in 10.0 mi South 13.8 mph - N/A   Clear
8:55 AM 55.6 °F 41.2 °F 58% 30.29 in 10.0 mi South 13.8 mph - N/A   Clear
9:15 AM 57.2 °F 41.7 °F 56% 30.30 in 10.0 mi South 17.3 mph - N/A   Clear
9:35 AM 59.2 °F 42.1 °F 53% 30.30 in 10.0 mi South 17.3 mph - N/A   Clear
9:55 AM 60.4 °F 42.3 °F 51% 30.31 in 10.0 mi South 17.3 mph - N/A   Clear
10:15 AM 62.2 °F 42.1 °F 48% 30.31 in 10.0 mi South 19.6 mph - N/A   Clear
10:35 AM 64.0 °F 41.9 °F 44% 30.31 in 10.0 mi South 20.7 mph 24.2 mph N/A   Clear
10:55 AM 65.5 °F 41.0 °F 41% 30.31 in 10.0 mi South 19.6 mph - N/A   Clear
11:15 AM 67.1 °F 41.0 °F 39% 30.31 in 10.0 mi South 19.6 mph 23.0 mph N/A   Clear
11:35 AM 67.8 °F 40.1 °F 36% 30.31 in 10.0 mi SSW 19.6 mph 24.2 mph N/A   Clear
11:55 AM 69.3 °F 39.4 °F 34% 30.30 in 10.0 mi SSW 16.1 mph 21.9 mph N/A   Clear
12:15 PM 71.4 °F 39.0 °F 31% 30.30 in 10.0 mi South 17.3 mph 24.2 mph N/A   Clear
12:35 PM 72.5 °F 38.8 °F 29% 30.30 in 10.0 mi SSW 15.0 mph 23.0 mph N/A   Clear
12:55 PM 73.8 °F 38.5 °F 28% 30.29 in 10.0 mi South 13.8 mph 23.0 mph N/A   Clear
1:15 PM 74.8 °F 37.2 °F 26% 30.29 in 10.0 mi SSW 13.8 mph - N/A   Clear
1:35 PM 75.7 °F 37.4 °F 25% 30.28 in 10.0 mi South 15.0 mph 21.9 mph N/A   Clear
1:55 PM 77.5 °F 36.5 °F 23% 30.26 in 10.0 mi South 16.1 mph 21.9 mph N/A   Clear
2:15 PM 78.6 °F 33.8 °F 20% 30.25 in 10.0 mi SSW 13.8 mph 19.6 mph N/A   Clear
2:35 PM 78.6 °F 34.0 °F 20% 30.24 in 10.0 mi South 16.1 mph 24.2 mph N/A   Clear
2:55 PM 79.2 °F 33.4 °F 19% 30.23 in 10.0 mi SSW 16.1 mph 20.7 mph N/A   Clear
3:15 PM 79.0 °F 33.4 °F 19% 30.21 in 10.0 mi South 13.8 mph 21.9 mph N/A   Clear
3:35 PM 80.4 °F 32.0 °F 17% 30.21 in 10.0 mi SSE 16.1 mph 21.9 mph N/A   Clear
3:55 PM 80.4 °F 30.9 °F 17% 30.20 in 10.0 mi South 16.1 mph - N/A   Clear
4:15 PM 81.0 °F 31.5 °F 17% 30.19 in 10.0 mi South 15.0 mph - N/A   Clear
4:35 PM 81.0 °F 30.9 °F 16% 30.19 in 10.0 mi South 17.3 mph 26.5 mph N/A   Clear
4:55 PM 81.5 °F 29.8 °F 15% 30.18 in 10.0 mi South 17.3 mph 21.9 mph N/A   Clear
5:15 PM 81.3 °F 28.6 °F 15% 30.18 in 10.0 mi South 15.0 mph 21.9 mph N/A   Clear
5:35 PM 81.3 °F 28.4 °F 15% 30.18 in 10.0 mi South 12.7 mph 20.7 mph N/A   Clear
5:55 PM 80.6 °F 29.5 °F 16% 30.17 in 10.0 mi South 15.0 mph 20.7 mph N/A   Clear
6:15 PM 79.7 °F 30.0 °F 16% 30.17 in 10.0 mi South 15.0 mph 21.9 mph N/A   Clear
6:35 PM 79.7 °F 28.6 °F 15% 30.17 in 10.0 mi South 15.0 mph 19.6 mph N/A   Clear
6:55 PM 78.8 °F 29.8 °F 17% 30.17 in 10.0 mi SSE 15.0 mph - N/A   Clear
7:15 PM 77.5 °F 29.8 °F 17% 30.17 in 10.0 mi SSE 13.8 mph - N/A   Clear
7:35 PM 75.7 °F 30.2 °F 19% 30.17 in 10.0 mi SSE 12.7 mph - N/A   Clear
7:55 PM 74.3 °F 30.4 °F 20% 30.17 in 10.0 mi SSE 12.7 mph - N/A   Clear
8:15 PM 72.5 °F 30.7 °F 21% 30.16 in 10.0 mi SSE 11.5 mph - N/A   Clear
8:35 PM 71.2 °F 30.6 °F 22% 30.16 in 10.0 mi SSE 12.7 mph - N/A   Clear
8:55 PM 70.2 °F 30.9 °F 23% 30.17 in 10.0 mi SSE 13.8 mph - N/A   Clear
9:15 PM 69.3 °F 31.8 °F 25% 30.17 in 10.0 mi SSE 12.7 mph - N/A   Clear
9:35 PM 68.9 °F 32.0 °F 25% 30.17 in 10.0 mi SSE 12.7 mph - N/A   Clear
9:55 PM 68.7 °F 32.0 °F 26% 30.17 in 10.0 mi SSE 15.0 mph - N/A   Clear
10:15 PM 69.3 °F 32.0 °F 25% 30.18 in 10.0 mi South 16.1 mph - N/A   Clear
10:35 PM 69.1 °F 32.0 °F 25% 30.18 in 10.0 mi South 19.6 mph - N/A   Clear
10:55 PM 68.7 °F 32.4 °F 26% 30.19 in 10.0 mi South 17.3 mph 21.9 mph N/A   Clear
11:15 PM 67.8 °F 32.5 °F 27% 30.19 in 10.0 mi South 17.3 mph - N/A   Clear
11:35 PM 66.7 °F 32.9 °F 28% 30.19 in 10.0 mi South 16.1 mph - N/A   Clear
11:55 PM 65.8 °F 33.1 °F 30% 30.19 in 10.0 mi South 13.8 mph - N/A   Clear